User: anonymous   Login
Location: Okie-Tex Star Party
(36.8978°N, 102.9520°W)
Time: 20:45:47
(UTC-05:00)
Language:

Hamsat - Orbit

View from above orbital plane
View from above orbital plane
View from above satellite
View from above satellite

Ground track
Ground track

The orbit data is extracted from the following two-line orbital elements,

1 28650U 05017B   17177.90127374 +.00000235 +00000-0 +30805-4 0  9990
2 28650 097.6513 151.9093 0025127 097.9513 262.4557 14.88677819657618
Epoch (UTC): 26 June 2017 21:37:50
Eccentricity: 0.0025127
inclination: 97.6513°
perigee height: 584 km
apogee height: 619 km
right ascension of ascending node: 151.9093°
argument of perigee: 97.9513°
revolutions per day: 14.88677819
mean anomaly at epoch: 262.4557°
orbit number at epoch: 65761

The dashed part of the orbit path shows where the satellite is in the earth's shadow,  

DLR